Find Starlink 1351

NORAD ID: 45697 Int'l Des: 2020-035 Owner: SPXS Country: US Constellation: starlink operational
LEOCIRCULAR

Current View

Loading 3D Globe...

About Starlink 1351

Description loading...

Upcoming Passes

Passes for default location (London). Set your location on the main map for personalized predictions.

Altitude History

Loading altitude history...

Two-Line Element Set

1 45697U 20035AS 26150.81103939 .00056889 00000-0 55687-3 0 9999
2 45697 53.0439 341.8596 0004425 124.6841 235.4591 15.65583385332189
Epoch: May 30, 2026 • Age: 25 hours

Current Status

Altitude 375.5 km
Velocity 7.69 km/s
Sub-Earth Point 52.31°N, 141.89°W
Launch Date Jun 4, 2020
Age 5.9 years
Type internet

Technical Details

Classification Payload
Mass 260.00 kg
Dry Mass 248.00 kg
Total Mass 260.00 kg
Length 0.20 m
Diameter 2.80 m
Span 9.00 m
Shape Box + pan
Manufacturer SPXS
Bus Type Starlink
Phase Status In Orbit
Owner/State SPXS/US

Most Searched